GFSNW_500_spd_021.txt.gz
Wind_Speed
86 87 87 88 87 86 86 83 80 66 67 69 71 68 64 63 63 62 65 69 72 70 69 68 69 65 58 31 32 38 41 42 48 47 44 39 37 40 42 49 42 47 48 40
90 90 92 93 94 94 90 87 82 60 63 70 66 65 65 64 65 68 72 75 79 75 73 75 73 70 62 47 50 47 38 48 46 50 49 48 47 40 42 43 44 48 46 38
92 90 87 82 80 77 78 76 69 54 53 61 64 63 71 71 73 77 80 81 84 85 83 80 78 77 68 59 59 54 50 51 57 58 55 49 50 45 42 43 48 44 49 42
79 73 69 62 54 53 50 49 50 47 44 48 57 59 64 66 71 75 77 83 89 89 91 90 85 84 81 72 68 68 64 58 58 58 48 51 52 43 43 46 45 48 39 46
59 53 43 35 24 26 27 26 32 33 31 32 42 46 49 55 60 62 76 77 73 83 90 93 91 90 85 82 77 74 69 66 56 56 55 48 55 50 46 43 39 42 41 42
51 39 26 22 20 20 19 19 19 19 21 25 28 36 46 50 52 53 53 63 77 64 73 92 92 94 92 88 80 68 65 69 58 66 59 50 49 61 52 41 38 36 42 39
38 26 19 16 15 15 15 14 18 18 17 23 26 29 35 45 54 50 57 51 59 61 72 77 91 94 93 91 84 71 68 61 60 68 62 59 62 54 49 44 40 40 37 34
33 23 17 20 16 14 15 18 21 22 19 18 23 29 30 28 31 36 50 62 46 46 57 66 64 82 90 95 89 76 67 59 61 58 70 65 61 54 50 46 44 37 36 32
31 25 20 19 18 19 19 20 21 23 20 17 15 23 26 23 19 23 28 36 51 49 43 43 60 62 77 91 94 78 60 54 57 53 66 73 67 54 48 48 47 44 46 42
29 26 23 20 18 17 18 18 18 20 21 15 18 18 20 22 18 18 21 24 25 40 32 30 51 55 62 80 89 72 62 50 45 47 59 65 66 58 41 45 52 51 55 52
26 24 21 20 17 15 16 19 19 19 19 14 20 20 19 21 21 19 19 13 24 39 16 26 37 49 56 62 83 75 65 59 45 36 45 56 55 55 51 49 54 53 49 50
24 22 20 17 14 11 10 13 13 13 13 8 10 14 15 16 18 21 16 14 14 25 22 17 31 40 50 53 63 82 63 54 51 44 42 47 47 48 57 62 58 59 59 54
24 23 21 20 19 15 14 13 12 11 8 10 10 8 9 12 13 21 13 17 21 24 19 15 19 35 40 43 60 70 66 49 43 50 60 58 56 58 57 60 56 58 50 45
29 26 25 22 22 21 14 13 13 10 6 4 3 3 6 5 12 10 13 14 24 30 17 14 21 35 32 50 50 49 70 53 39 51 53 47 43 59 55 52 50 50 51 40
30 27 25 24 23 20 20 18 15 14 13 12 12 15 14 8 8 6 12 19 20 5 8 21 24 28 36 46 40 59 45 49 55 47 52 23 55 44 50 61 47 61 54 49
32 31 28 24 22 22 22 22 22 20 16 13 13 18 20 11 8 11 14 18 17 11 15 20 24 40 25 45 36 53 39 57 61 60 59 56 47 57 54 57 50 48 45 45
33 34 31 29 24 20 19 20 20 20 18 15 14 12 18 19 13 8 11 8 7 6 15 24 31 35 35 35 33 39 45 48 53 62 68 67 64 67 56 52 53 44 35 37
33 28 26 26 27 23 24 26 26 20 19 20 20 16 12 15 16 12 10 15 19 18 18 28 25 38 34 33 25 14 39 53 48 51 62 38 45 34 38 23 44 44 35 33
29 27 28 34 30 26 22 23 24 21 18 18 20 21 13 10 3 12 14 21 26 22 22 14 17 41 41 22 11 22 27 29 36 37 55 52 37 31 21 38 39 43 34 34
33 32 29 31 39 31 26 26 30 24 27 27 27 18 18 19 18 18 13 14 15 21 21 19 29 27 15 12 15 14 10 18 17 18 15 16 19 38 48 47 43 35 32 37
27 33 34 34 32 27 29 45 38 31 35 34 21 14 13 13 15 12 18 21 23 22 19 17 14 16 14 13 16 12 19 10 21 15 14 18 14 12 14 18 21 25 28 30
22 29 30 31 31 24 24 45 48 36 19 25 21 11 17 9 16 19 16 17 27 31 26 24 21 17 11 13 10 14 17 14 8 10 11 13 12 20 12 15 23 26 24 22
20 22 24 29 29 28 27 48 52 27 26 17 24 25 24 21 23 28 32 30 38 37 36 35 32 26 21 22 24 23 14 16 12 9 9 14 8 8 9 10 11 13 14 25
15 18 20 26 24 30 28 35 30 31 22 17 20 14 24 30 37 39 38 34 36 39 32 31 26 20 15 17 19 17 14 11 7 9 6 5 6 10 11 8 7 4 5 11
12 11 14 20 22 23 29 31 22 27 24 22 24 25 33 31 37 39 36 34 35 34 33 27 25 20 23 19 10 7 6 2 4 7 7 11 14 12 12 11 12 13 12 15
11 10 17 17 18 20 22 24 29 32 31 29 26 33 34 36 37 29 32 29 27 27 23 19 21 20 21 20 21 14 9 8 12 7 8 11 15 17 17 16 16 14 12 13
14 12 15 18 14 16 22 23 26 25 25 25 30 39 40 31 29 28 26 25 21 16 17 16 14 12 9 11 11 8 9 7 4 3 4 6 8 13 16 14 13 12 13 13

GFSNW_500_spd_024.txt.gz
Wind_Speed
83 85 85 84 83 81 80 79 76 69 71 70 71 71 71 72 71 69 75 77 75 73 72 71 71 65 60 60 59 59 55 48 50 50 45 45 47 43 43 45 42 40 36 34
87 86 86 87 88 88 85 80 73 67 69 69 69 72 75 77 78 77 76 79 81 81 80 77 77 73 68 67 66 67 62 61 57 55 55 55 57 49 47 44 43 45 45 36
71 67 64 65 66 66 67 63 56 50 52 60 64 67 74 79 81 82 83 82 84 85 84 82 83 82 77 73 69 72 68 68 67 63 57 55 56 54 54 51 52 47 47 40
51 50 50 49 48 43 38 35 32 27 27 37 49 56 63 70 74 80 85 85 86 88 90 89 89 87 84 80 76 74 73 73 75 71 65 55 56 56 55 56 53 55 42 44
46 46 43 42 39 30 27 24 20 16 10 22 36 40 42 51 56 65 70 79 80 87 88 90 89 92 89 85 79 73 73 77 77 78 73 66 57 60 59 56 53 53 50 45
42 40 36 30 26 24 22 19 15 12 9 11 23 33 40 39 33 43 52 60 71 77 82 86 89 92 98 90 83 81 76 79 79 77 73 66 52 67 65 61 57 54 55 43
38 36 33 28 27 24 21 19 15 17 15 14 15 23 32 38 43 45 29 47 53 57 60 71 82 83 99 99 92 83 84 77 78 76 72 65 71 61 65 61 56 54 54 36
34 31 30 27 25 25 22 21 20 21 18 17 18 18 22 29 35 40 44 49 48 49 53 61 70 78 81 98 97 92 82 75 68 73 67 65 67 65 57 67 60 48 53 53
32 31 30 28 25 22 21 21 19 20 19 16 16 16 18 21 26 26 25 31 38 41 42 48 58 64 71 74 91 94 87 77 68 54 67 62 68 62 59 53 64 56 53 53
33 29 27 26 24 22 20 22 20 20 18 13 15 16 18 17 19 24 25 26 26 22 23 35 44 45 44 61 73 93 84 79 66 56 58 68 67 66 57 52 55 59 57 53
36 33 31 30 29 25 20 21 21 19 14 11 16 17 16 15 20 20 22 21 20 16 12 12 30 30 31 39 69 69 66 77 71 64 49 55 68 65 55 56 52 56 55 56
36 34 32 29 26 25 21 20 21 19 12 10 12 11 13 13 19 16 17 16 15 15 19 15 15 32 34 38 53 59 48 62 77 56 45 55 62 42 41 53 55 54 59 58
40 39 35 32 30 27 23 20 19 18 10 9 9 8 6 8 12 5 9 13 13 24 18 12 12 13 17 28 44 57 50 63 68 52 38 56 69 70 40 57 60 56 59 62
36 37 38 38 34 27 27 27 25 21 12 11 6 2 4 1 1 9 8 7 14 19 18 19 9 3 5 25 28 38 54 49 63 53 38 59 65 58 67 60 63 65 65 59
35 32 30 28 27 28 28 29 29 27 23 20 17 18 15 10 8 7 9 17 23 17 12 10 6 8 19 20 25 29 46 34 66 53 47 54 62 65 59 56 59 67 69 65
40 43 39 32 28 27 25 22 22 24 21 21 19 15 14 15 13 15 12 20 19 7 6 12 13 11 10 19 26 23 37 25 55 55 45 49 46 48 50 55 59 57 55 55
42 44 41 38 27 27 27 22 18 17 18 15 17 18 14 10 8 6 5 3 7 2 15 13 13 17 19 21 29 12 34 33 58 35 37 53 48 46 42 55 54 55 56 62
41 48 45 32 38 35 22 21 21 20 22 22 18 14 13 15 14 17 14 19 19 19 20 15 11 17 14 19 24 23 21 31 53 35 30 45 44 50 28 34 58 57 53 51
36 41 45 27 40 58 37 29 34 35 35 26 19 25 12 9 14 20 22 19 22 17 18 16 7 11 12 17 17 22 18 29 43 45 37 42 41 43 42 44 32 40 43 45
32 38 40 27 26 43 52 44 41 42 35 26 29 25 22 17 19 16 17 17 26 19 14 17 16 9 21 24 18 19 23 29 33 32 30 34 33 40 46 50 45 33 43 37
30 32 37 23 33 36 55 52 50 35 30 32 20 17 19 19 22 25 27 25 24 21 20 19 13 16 22 5 14 27 20 24 29 40 46 46 43 36 33 40 34 29 25 29
26 28 28 23 36 42 50 48 45 31 30 32 21 23 17 17 22 24 22 21 19 19 21 17 17 10 5 17 19 21 21 25 22 20 21 18 17 22 28 22 18 18 19 27
18 24 23 22 39 45 47 37 29 28 27 23 18 25 26 29 35 33 36 42 42 37 35 32 27 26 25 15 17 13 17 20 17 14 18 13 12 17 12 11 15 15 20 17
15 16 22 27 37 43 34 28 26 28 22 23 23 25 34 38 44 43 42 39 39 37 36 31 25 23 21 20 23 24 23 16 11 5 6 11 13 19 17 10 10 12 12 9
9 15 24 33 34 33 31 28 26 26 27 25 25 33 35 38 41 39 36 34 34 32 30 26 24 21 21 20 13 10 11 9 5 3 5 5 6 9 5 5 8 9 10 7
10 19 21 24 25 25 27 29 33 32 34 27 28 34 33 34 35 32 32 31 29 24 24 27 23 23 18 21 23 17 12 8 4 6 3 2 4 4 6 11 9 9 10 11
20 23 21 20 21 24 28 25 30 35 25 21 21 30 34 31 30 30 27 25 22 18 16 14 13 11 11 12 14 13 14 14 12 7 3 3 6 8 12 14 13 12 12 13

GFSNW_500_spd_030.txt.gz
Wind_Speed
68 63 57 53 52 50 49 48 52 55 57 62 61 63 67 71 72 80 81 81 79 75 73 72 68 67 67 65 63 62 59 60 55 54 49 45 45 45 46 47 38 35 34 23
57 54 50 46 45 42 40 42 42 42 42 44 45 48 52 63 68 73 80 84 85 82 79 76 73 72 71 70 68 67 65 64 59 57 55 56 57 52 50 47 45 46 42 25
55 51 49 46 42 41 40 42 36 30 29 30 26 28 40 53 62 67 75 82 85 87 86 83 80 76 76 74 74 72 69 69 66 64 58 60 59 57 56 53 54 46 46 31
58 50 46 43 41 39 38 36 32 25 24 25 23 18 25 39 49 54 58 70 80 83 85 86 85 81 79 78 78 77 75 73 71 69 65 63 61 61 60 59 55 53 42 39
56 55 49 42 40 36 35 34 30 23 21 21 21 23 22 18 29 38 43 41 59 76 78 83 83 85 85 83 81 81 80 78 76 73 71 67 65 62 62 61 59 58 48 47
52 52 50 43 40 36 34 31 27 24 18 18 20 21 20 19 17 22 30 49 43 56 72 79 81 85 86 87 86 86 86 84 81 79 76 74 72 64 64 65 63 58 53 46
50 49 50 47 42 41 35 32 25 21 18 16 19 18 18 18 17 11 25 26 36 45 54 62 74 82 86 89 88 89 90 90 88 85 80 80 76 68 67 68 64 61 57 49
52 51 50 50 46 40 40 34 27 22 17 16 18 17 15 14 14 12 13 31 29 22 25 47 58 64 80 83 90 91 90 92 92 92 88 84 81 79 72 69 67 64 64 57
50 49 49 48 47 45 39 38 32 25 20 16 19 17 16 11 11 10 10 14 22 27 20 22 31 45 60 75 84 87 93 90 95 95 94 91 87 81 77 74 71 67 66 61
59 46 44 45 43 43 44 42 35 29 22 17 21 16 10 10 7 7 10 10 13 18 28 33 33 31 34 51 64 78 84 96 95 95 98 97 92 87 83 80 72 67 65 62
58 54 48 41 39 42 43 44 39 33 25 22 17 9 5 5 6 7 8 6 8 11 13 15 18 21 26 35 40 56 74 85 98 99 99 104 94 90 87 84 77 71 69 62
52 59 45 42 38 35 36 38 34 33 30 23 17 8 2 3 4 3 3 4 5 5 8 9 12 11 13 11 15 33 54 76 86 96 109 97 93 88 84 84 82 77 71 65
52 56 53 49 34 33 32 34 31 27 26 25 18 17 10 6 3 3 3 5 7 7 3 8 9 9 8 9 7 19 33 46 66 80 97 101 99 85 80 79 72 74 66 68
49 55 55 49 32 31 31 28 32 27 24 22 20 16 14 13 11 6 6 5 4 2 5 3 2 4 4 9 12 16 24 39 46 58 75 89 94 91 71 65 57 45 37 44
45 48 51 39 30 31 31 29 27 28 25 23 21 20 17 10 13 15 17 11 9 5 1 5 6 10 14 13 19 13 30 36 43 41 46 63 70 67 79 46 41 42 40 40
39 44 46 39 32 38 39 30 24 25 24 23 20 14 15 18 16 17 16 11 11 8 7 11 14 14 15 12 7 18 23 35 40 45 46 41 53 53 47 73 49 46 45 47
35 39 41 40 29 33 39 31 23 20 22 22 19 20 12 9 9 10 10 9 6 10 14 19 15 10 14 12 25 19 24 23 37 44 49 51 47 51 50 51 55 51 52 49
32 35 40 36 26 26 26 30 30 32 28 27 25 24 20 20 18 13 12 14 19 20 21 24 26 29 31 32 15 10 10 29 41 48 47 35 32 60 56 52 56 52 56 63
28 33 35 31 21 21 23 30 33 31 27 24 24 23 20 19 17 14 18 18 16 19 21 24 25 27 29 28 11 17 25 28 36 40 39 29 34 58 60 51 54 59 54 66
25 30 33 27 19 22 18 31 31 26 23 20 20 19 18 15 16 20 19 17 21 21 22 22 21 23 23 18 21 23 23 22 25 37 39 38 38 43 55 52 42 59 34 35
23 28 27 18 17 24 24 26 24 24 24 20 21 18 15 13 14 19 28 32 42 37 32 30 26 25 27 26 23 16 18 23 13 17 34 42 36 45 39 38 48 23 35 49
23 22 16 17 27 31 29 30 29 28 24 20 19 21 24 23 24 30 34 34 32 39 40 40 41 32 27 25 32 22 13 16 28 24 12 15 12 16 34 33 36 34 18 26
23 15 17 28 33 31 31 29 26 29 27 27 26 29 31 33 32 36 38 41 40 39 40 35 35 33 32 24 22 22 16 10 15 8 6 9 9 6 18 21 19 18 24 28
12 11 27 34 37 31 24 25 25 25 27 29 27 26 24 29 35 36 35 39 40 37 39 39 25 23 21 23 28 27 22 25 32 29 14 8 5 9 12 20 25 26 26 24
8 19 29 28 32 28 25 13 15 22 22 21 20 23 27 26 30 28 30 34 35 30 29 25 23 30 27 22 22 27 30 29 28 27 23 13 11 11 12 11 18 23 25 23
19 23 24 25 22 23 22 22 24 27 31 20 14 14 16 17 20 21 28 28 28 23 22 23 17 24 27 30 29 28 23 18 16 19 17 18 18 16 11 11 13 15 17 19
17 18 18 19 15 14 15 16 17 23 22 18 19 17 18 15 15 16 17 19 18 18 18 18 18 18 19 19 19 19 20 21 19 15 11 10 11 12 10 10 11 13 13 15

GFSNW_500_spd_033.txt.gz
Wind_Speed
58 56 52 55 54 53 48 43 43 41 41 39 30 35 45 50 60 69 71 77 78 75 72 67 63 64 66 64 60 57 58 56 53 52 50 46 45 44 44 44 37 32 31 27
55 55 56 57 55 54 51 41 39 39 36 31 21 20 24 35 47 59 69 74 78 78 74 70 69 66 68 67 66 63 61 62 57 54 55 53 52 51 48 45 43 44 38 28
58 57 57 55 54 52 47 43 35 34 32 29 20 16 16 18 35 48 59 69 74 76 77 74 74 72 72 71 69 69 67 65 62 60 58 57 56 54 50 49 52 42 38 30
61 56 56 53 54 54 49 45 35 31 28 27 21 16 15 13 14 28 44 47 63 68 74 76 76 76 76 75 74 73 72 70 68 65 65 64 62 59 58 56 50 49 37 34
60 60 57 52 52 52 52 45 42 31 26 26 22 19 15 14 12 11 20 36 30 39 68 74 75 79 79 79 78 77 76 75 74 71 70 68 66 64 62 58 54 53 44 39
58 63 54 52 49 49 49 50 47 36 28 24 24 21 18 15 11 9 6 24 38 26 33 60 76 78 82 82 82 81 80 79 77 75 73 72 71 64 63 60 57 55 50 43
58 66 53 50 49 45 45 47 49 44 32 27 25 20 19 16 12 8 12 17 37 37 33 36 55 74 79 85 83 84 82 82 81 79 77 77 71 69 69 66 62 59 53 47
55 59 56 51 52 47 44 43 44 46 38 32 26 26 17 15 11 9 10 11 21 30 37 37 39 45 72 80 85 86 85 85 84 83 81 79 78 73 71 69 65 63 59 54
52 57 62 53 48 50 44 42 41 41 41 37 23 18 14 9 8 8 9 9 13 28 25 27 34 42 47 66 79 85 88 88 89 88 86 86 78 75 74 72 68 64 62 56
49 52 59 55 36 44 43 40 37 37 37 36 28 18 11 5 3 6 6 6 10 15 25 24 15 18 28 44 60 77 85 92 92 91 91 90 85 80 77 75 69 67 65 61
45 50 55 49 40 38 42 38 36 33 34 32 29 20 11 7 3 3 5 4 4 9 13 19 26 25 28 34 38 50 73 86 95 97 97 95 88 83 82 77 71 67 65 60
44 47 51 54 48 43 43 39 35 32 32 30 24 24 16 10 6 5 6 3 0 4 7 9 10 13 12 16 21 37 54 71 82 96 101 94 94 91 83 82 78 74 70 62
42 46 48 50 48 49 49 36 32 31 30 32 27 20 18 18 16 14 11 10 7 7 2 1 3 7 7 6 14 21 30 43 67 83 96 97 97 93 92 89 83 77 75 71
38 44 47 52 45 42 42 30 28 25 23 25 27 26 24 23 21 19 19 16 15 13 12 10 7 4 2 3 8 10 16 28 42 62 79 85 95 96 95 91 86 83 76 72
32 41 44 48 42 32 34 27 22 19 19 18 20 20 21 20 20 18 16 13 12 14 17 18 15 15 15 10 12 4 20 24 24 31 50 74 77 82 94 92 88 81 77 77
28 37 41 40 35 33 30 27 30 28 24 17 13 17 15 17 15 13 11 16 19 24 24 22 15 14 17 13 9 14 22 25 19 15 30 55 62 72 75 85 84 79 78 71
27 34 38 35 31 29 22 27 31 29 27 23 20 18 20 21 22 24 24 26 25 25 24 27 22 16 26 26 22 13 15 31 29 25 26 48 52 52 57 57 57 63 61 51
25 31 34 34 29 19 23 20 20 23 25 26 25 24 25 25 26 26 24 27 31 33 33 30 31 33 29 25 21 17 12 16 20 28 24 45 49 43 37 44 43 42 46 42
23 28 32 32 22 13 23 20 17 19 20 20 21 23 26 27 29 30 30 37 40 35 35 35 32 34 24 22 22 25 18 17 24 28 40 42 40 37 37 44 58 53 54 48
24 28 27 17 15 16 12 19 17 17 20 21 22 23 25 27 38 39 40 44 47 48 49 42 32 34 16 19 21 19 15 18 38 35 39 30 20 30 39 46 60 59 59 52
26 27 15 16 18 17 26 30 28 27 25 25 25 25 27 27 32 35 36 42 44 47 46 48 46 37 26 16 19 23 17 6 8 11 9 19 21 30 22 42 36 49 59 64
25 17 13 21 25 29 29 28 27 28 27 27 27 29 31 33 34 40 39 39 43 42 37 41 46 49 39 22 14 16 14 9 5 15 16 8 16 18 33 53 41 36 52 53
24 16 19 27 29 27 26 27 25 23 20 22 21 28 30 31 29 32 35 36 38 38 46 44 35 33 33 37 28 19 13 7 11 15 19 2 8 21 19 30 46 44 36 38
18 11 25 25 20 21 24 23 21 23 22 19 18 22 23 22 24 23 29 32 33 33 35 37 37 28 23 26 33 31 25 21 25 28 26 20 22 16 21 21 12 16 27 25
15 15 25 26 24 20 18 18 21 23 25 21 19 16 16 16 14 20 24 29 27 25 25 26 29 36 34 25 21 26 31 28 28 29 25 24 20 25 18 13 9 11 12 14
19 22 23 23 22 21 19 18 15 14 15 19 20 21 19 20 20 18 18 19 22 21 21 24 24 25 26 27 26 20 15 15 19 27 23 15 12 15 20 22 22 23 22 20
23 24 23 21 19 18 18 16 16 17 17 12 12 14 14 17 17 18 18 17 17 18 18 17 18 19 18 16 17 19 20 19 14 7 7 5 5 6 6 5 5 6 7 10